RH
52 52 51 52 50 49 48 47 45 43 40 38 36 32 28 24 18 11 10 19 23 22 22 20 18 15 12 12 10 9 20 23 17 13 10 8 12 9 9 10 36 40 45 59 74
49 51 52 52 52 52 51 49 47 44 40 36 35 32 27 26 18 12 21 23 24 24 20 22 20 19 15 12 11 12 22 19 13 11 10 8 9 8 9 10 59 62 50 70 74
49 51 53 53 54 54 52 50 47 44 40 36 33 32 30 28 20 26 24 24 22 22 20 24 22 20 17 13 12 11 14 14 11 10 9 9 9 8 8 12 38 69 70 72 74
55 54 57 58 57 55 52 49 46 44 43 42 38 33 33 30 24 26 25 24 24 25 26 25 24 20 20 18 12 14 10 9 8 9 9 10 8 10 9 9 13 36 32 66 73
58 59 59 59 58 56 51 46 43 40 42 46 50 50 41 54 34 13 22 27 28 29 30 29 27 22 22 17 15 16 13 11 10 10 10 9 10 11 10 8 9 41 55 63 71
47 51 52 54 51 49 46 44 41 41 45 50 61 69 76 78 20 33 31 33 31 30 31 30 26 24 19 16 18 14 14 13 11 11 11 13 12 10 10 9 9 43 56 58 64
41 44 45 46 45 44 44 46 45 48 55 67 77 84 93 60 18 20 32 34 34 34 34 26 29 33 27 24 18 19 19 17 15 13 13 11 14 14 10 10 9 36 49 52 52
52 47 47 47 49 52 57 59 63 65 72 79 86 88 97 23 26 22 14 13 16 35 38 34 34 35 32 22 23 27 24 26 17 16 13 12 15 14 9 9 10 12 50 49 55
75 65 61 62 65 69 74 75 72 78 83 90 96 97 90 34 44 34 44 39 29 36 40 36 35 35 29 34 39 33 36 28 22 16 15 14 15 13 9 9 10 9 17 48 51
93 84 79 77 81 95 95 82 80 95 89 100 96 88 66 34 35 37 42 34 37 38 32 30 29 31 34 39 50 40 35 31 28 19 15 12 13 12 8 9 10 9 9 14 40
95 92 87 80 88 90 97 99 100 88 96 82 60 56 33 40 43 34 40 32 30 36 33 27 41 44 34 32 32 32 32 32 25 20 20 21 19 16 12 11 12 11 10 13 17
100 99 98 91 86 98 99 100 95 86 79 71 68 72 66 56 51 41 35 32 29 38 34 35 41 32 27 27 29 31 33 32 26 22 23 26 26 21 18 13 11 11 10 10 14
80 92 100 100 92 92 86 81 97 97 89 73 66 63 61 58 59 54 42 34 37 40 39 45 33 26 26 27 28 28 31 32 32 26 25 27 27 25 20 17 12 11 11 9 10
74 70 74 89 100 94 98 97 100 96 98 72 65 59 61 56 51 48 48 44 38 39 33 36 28 29 29 31 27 34 26 30 32 37 45 30 49 28 23 21 18 15 13 12 9
70 78 75 80 94 92 88 89 97 89 99 41 43 38 40 49 38 35 43 44 51 47 34 38 36 38 39 35 31 38 30 33 35 42 47 37 45 34 24 24 20 24 17 14 11
78 79 99 99 99 94 94 92 95 100 95 46 33 35 34 46 42 26 34 36 37 44 44 47 36 34 34 30 29 28 30 34 38 42 58 42 41 39 32 33 37 33 37 35 16
97 93 99 99 96 95 94 98 100 99 41 37 33 32 34 41 44 40 35 41 53 62 62 50 46 37 34 42 34 31 40 62 65 62 68 36 41 37 44 44 41 42 44 50 46
100 100 100 100 99 99 100 97 99 68 58 48 45 32 38 34 42 43 45 48 45 47 51 64 62 42 34 41 44 40 38 70 84 75 56 41 51 45 44 42 42 46 48 46 54
98 100 100 100 99 99 91 99 89 66 47 58 56 55 38 29 31 37 44 36 38 40 53 46 40 25 23 24 29 42 47 36 48 50 61 56 46 43 44 45 48 50 49 49 50
97 99 100 100 100 100 97 97 78 52 60 53 69 64 44 36 34 32 31 28 27 26 30 34 45 29 21 19 21 31 28 72 81 99 95 61 50 68 53 51 50 50 49 49 50
100 100 100 100 100 100 99 91 68 52 61 58 51 57 50 48 38 36 35 33 36 34 32 30 39 39 30 26 26 27 35 41 66 89 99 96 75 49 56 55 51 45 39 38 47
100 100 99 100 100 100 98 76 58 48 50 54 45 51 55 48 51 45 39 50 36 41 46 41 48 57 42 31 27 33 47 52 75 71 73 76 77 43 46 44 45 44 42 40 38
99 100 100 100 99 99 96 84 72 58 53 48 52 48 44 50 58 47 37 46 39 40 51 50 65 67 50 35 50 67 60 55 61 65 72 81 80 48 49 52 46 43 39 36 38
99 100 99 99 100 100 100 100 97 64 65 65 62 52 50 50 44 53 46 46 41 41 46 41 57 65 66 67 82 92 78 66 77 95 97 83 70 67 59 56 52 45 38 32 36
94 99 100 99 99 100 100 100 100 100 96 98 73 90 91 75 62 54 47 44 46 42 53 57 71 56 55 52 74 79 78 79 85 71 86 64 66 50 46 57 54 44 36 37 36
86 92 100 99 100 100 99 100 100 100 100 100 100 98 98 98 100 100 99 78 72 54 56 56 73 57 59 46 44 74 68 66 72 73 73 66 64 45 41 37 35 32 30 32 31
86 82 88 95 99 99 94 88 84 94 92 96 99 97 88 100 98 92 90 98 88 82 91 81 75 74 74 55 55 66 62 62 61 53 57 76 57 44 42 40 37 33 29 25 36
Wind_Speed
19 18 18 17 16 16 16 18 19 19 20 22 23 25 26 29 29 22 23 10 14 15 18 16 9 13 14 19 19 19 1 8 8 11 10 15 9 12 11 7 12 8 25 32 35
21 20 19 18 18 17 17 18 20 21 22 23 24 26 26 28 30 20 11 10 13 13 11 15 14 13 13 12 12 7 4 9 11 10 8 9 12 19 8 9 14 25 22 42 36
22 21 21 20 20 19 19 18 19 20 22 23 25 26 26 25 25 1 7 12 10 10 18 11 12 18 17 20 12 10 9 9 18 23 17 9 9 17 12 5 13 32 38 42 40
23 23 22 21 21 21 21 21 21 21 21 21 23 26 25 20 7 4 15 18 17 15 9 8 12 14 7 7 21 8 21 18 24 22 14 4 9 11 16 12 13 24 28 39 38
25 24 23 23 22 21 22 22 22 23 22 22 22 22 25 11 26 19 16 17 16 9 8 11 16 17 6 10 17 7 7 18 19 17 21 16 8 9 23 25 16 24 32 34 36
26 25 24 24 24 23 23 23 22 22 22 22 23 24 21 13 15 6 9 7 11 11 13 13 13 17 14 11 8 16 24 22 25 21 23 12 9 11 23 24 22 21 30 31 34
26 25 24 24 23 23 23 23 23 23 22 21 21 24 25 36 22 16 16 17 14 14 20 17 16 15 16 9 16 18 12 14 14 18 11 27 10 9 24 20 25 18 29 28 28
26 25 25 23 23 22 22 23 23 23 22 22 22 24 20 34 34 35 30 32 28 23 22 23 15 20 16 14 14 7 6 6 10 13 23 12 17 14 26 24 26 20 31 29 29
25 25 23 22 21 21 22 23 24 24 23 24 22 15 18 15 17 13 13 22 20 22 19 22 20 22 15 6 6 6 5 11 13 19 12 11 9 14 24 19 29 29 25 36 35
26 23 22 21 20 20 21 23 24 24 24 23 21 12 20 16 12 12 9 8 11 12 14 17 9 4 4 6 10 5 7 9 11 17 7 5 6 9 18 16 15 22 29 30 38
26 26 25 22 20 20 19 19 17 12 17 19 12 14 11 11 11 11 14 11 13 17 8 14 5 9 21 14 15 16 18 20 18 12 4 6 6 9 16 20 14 17 25 32 38
21 28 26 23 21 20 20 19 14 6 12 19 29 37 38 32 22 24 10 12 18 11 7 7 15 15 16 17 18 18 20 22 13 7 11 11 10 9 8 10 21 23 27 20 32
12 14 21 23 24 24 28 30 25 22 9 17 29 38 37 32 39 35 25 26 11 14 13 18 7 20 19 19 19 18 13 11 8 7 12 13 18 8 9 17 22 32 31 36 33
23 18 15 18 16 21 23 23 26 25 5 8 10 14 26 31 19 32 42 32 12 19 11 16 16 18 19 20 18 18 13 10 8 6 6 4 12 3 9 12 14 25 33 36 42
23 30 24 25 19 12 10 8 11 9 4 6 7 4 4 24 2 4 37 36 25 16 9 9 9 8 13 15 15 19 14 10 8 8 7 3 7 4 7 9 14 14 25 37 46
27 26 25 28 26 19 18 17 14 3 9 5 6 6 4 27 13 6 8 23 14 16 21 18 22 14 13 14 10 8 4 8 5 3 14 8 6 2 3 8 12 17 32 19 27
32 31 31 31 29 24 24 18 3 5 7 6 5 7 9 7 12 12 6 6 7 9 16 16 21 18 20 19 16 5 3 2 3 5 8 9 9 9 7 11 13 15 27 37 28
38 35 32 27 25 24 24 2 6 7 9 3 5 7 10 6 10 15 11 7 9 6 3 10 7 20 13 22 8 12 9 5 5 5 5 4 5 4 7 11 18 26 31 38 28
15 19 21 19 19 22 16 3 7 6 4 5 8 2 7 12 7 12 15 12 11 15 7 4 6 8 10 4 7 23 11 15 12 7 3 4 3 3 4 10 16 19 27 28 29
18 20 20 22 20 26 5 8 7 7 5 8 11 4 5 3 3 3 6 6 10 5 13 3 4 3 1 5 5 4 3 4 3 4 5 4 4 3 7 6 10 10 15 20 18
17 13 10 22 22 16 5 7 7 19 6 4 3 7 8 8 2 9 5 3 6 6 7 4 3 3 5 2 3 2 1 3 6 3 1 2 1 4 10 8 8 8 16 16 12
15 2 12 21 6 3 4 5 9 12 7 11 6 5 6 7 9 7 8 3 6 3 3 2 3 2 6 4 5 2 4 5 2 4 4 2 2 3 9 9 11 9 9 9 8
3 2 11 20 3 2 3 5 7 4 7 8 9 9 6 5 3 6 2 5 7 3 4 1 2 1 4 4 5 6 4 3 1 1 5 3 3 3 5 5 6 5 4 5 11
4 1 6 4 1 1 3 3 4 15 9 7 9 10 10 9 10 6 4 5 10 5 9 7 5 6 5 4 4 3 4 5 6 2 1 7 1 3 4 3 6 13 15 19 16
5 1 1 0 1 1 4 3 1 1 5 11 3 8 5 4 10 13 7 8 9 14 7 6 6 7 10 8 6 7 5 12 8 8 9 18 8 15 10 11 17 22 23 23 22
6 5 6 3 2 3 1 1 2 4 5 4 3 5 8 2 5 6 8 4 3 2 6 4 4 5 9 11 10 6 13 12 14 15 14 15 16 16 18 17 17 21 20 21 22
7 6 3 2 1 2 3 6 3 2 1 6 3 1 2 1 2 5 10 17 12 6 1 3 3 3 9 10 6 8 23 18 18 14 15 13 19 16 11 12 21 25 21 15 4
Wind_Direction
250 256 262 270 276 284 291 297 302 306 310 316 318 319 321 321 319 322 306 287 278 279 300 312 319 330 335 250 267 268 244 264 260 266 267 350 357 348 326 349 57 96 142 161 161
253 258 263 267 274 279 286 293 300 303 306 309 314 316 318 323 322 325 317 284 279 291 300 310 318 332 312 300 283 200 197 229 248 254 284 325 344 322 335 284 86 93 122 152 159
253 258 263 268 273 278 282 286 292 299 303 307 310 313 317 325 325 301 25 349 328 291 316 312 331 305 283 287 274 265 242 235 264 277 303 301 321 310 319 294 174 141 149 164 170
253 255 260 263 268 274 279 284 288 294 300 304 307 308 314 323 298 226 315 316 314 309 302 331 323 319 311 295 285 290 280 263 267 282 306 283 300 313 308 294 287 186 179 169 172
253 256 260 263 265 270 276 280 285 291 297 300 305 310 314 304 265 284 296 306 304 292 310 307 302 300 269 310 323 293 287 311 313 313 300 275 263 261 292 292 308 191 173 173 177
256 257 260 264 268 272 276 278 282 286 291 296 302 305 311 273 294 297 249 253 292 288 285 285 283 303 299 285 278 286 301 297 298 296 296 287 266 243 265 283 288 177 180 181 184
254 257 258 262 266 269 274 278 281 285 289 292 296 301 294 266 274 264 252 257 252 253 279 267 281 308 309 322 293 316 307 300 290 282 263 267 281 248 245 261 274 194 185 186 192
254 256 260 262 266 269 271 274 277 282 287 290 294 298 275 289 295 277 262 254 250 251 258 266 263 285 289 280 299 308 296 279 270 255 257 219 247 246 247 242 246 246 183 188 191
252 254 256 259 262 265 268 272 278 281 286 291 296 301 281 298 279 304 265 256 258 253 249 256 258 252 270 260 309 242 248 270 279 257 243 200 225 225 235 240 228 239 206 190 192
249 251 253 254 254 259 265 272 280 288 288 283 274 275 260 265 281 281 278 277 258 245 246 226 237 204 229 194 230 224 242 252 247 280 314 208 216 218 220 250 247 241 228 204 196
248 248 245 248 256 260 265 277 286 276 236 222 231 218 277 298 296 306 225 236 231 237 198 200 182 209 229 228 235 248 264 273 271 279 298 267 272 263 234 231 241 258 225 212 205
241 243 237 241 250 257 255 254 241 278 292 257 257 257 258 261 277 263 247 223 216 226 240 236 226 221 241 245 249 242 249 262 276 317 322 309 282 268 258 232 233 241 234 216 209
220 226 241 245 248 254 260 258 257 258 271 264 256 255 247 240 246 245 243 237 222 219 221 235 220 220 232 248 253 258 262 268 261 287 293 301 290 295 281 272 245 237 238 226 211
228 226 237 236 252 248 257 264 240 243 258 267 220 255 225 222 259 246 235 239 232 230 238 249 236 242 256 244 247 253 260 286 301 305 264 44 293 282 275 277 272 258 243 224 216
234 224 225 215 231 221 227 201 183 151 261 228 190 190 209 182 257 259 219 224 238 235 198 232 302 291 271 269 268 273 284 281 283 294 314 127 292 132 236 260 277 344 263 228 213
228 225 218 217 219 215 178 175 152 191 238 251 133 172 159 197 218 123 156 221 241 245 257 263 270 248 260 278 307 336 337 316 285 264 263 158 209 326 300 343 30 22 27 39 186
227 222 223 217 206 197 176 168 153 220 273 170 178 171 192 193 215 228 192 205 193 208 229 251 257 264 258 271 274 250 357 303 299 213 251 189 221 244 62 39 45 41 38 43 106
213 216 197 196 195 186 170 88 216 234 256 349 14 198 190 183 211 209 234 184 213 224 200 218 262 231 233 226 235 235 197 189 215 224 284 38 249 115 101 66 59 54 55 56 80
164 186 195 202 187 182 157 195 210 222 75 203 310 272 219 210 209 185 208 216 190 195 212 217 229 349 55 172 239 228 214 225 254 297 303 240 97 273 91 65 57 54 60 61 67
184 209 209 213 199 183 173 224 226 236 79 326 214 310 245 223 228 204 207 208 222 185 217 193 301 336 59 19 358 118 95 47 71 208 212 254 207 157 104 116 70 54 56 77 86
205 184 190 204 192 193 213 213 234 259 125 224 258 247 289 311 319 280 245 56 31 28 11 88 137 277 21 190 213 85 242 226 140 154 242 307 75 89 61 62 78 62 50 42 71
183 138 188 180 170 245 211 205 241 273 165 208 201 217 259 309 308 277 269 66 75 64 43 56 107 208 246 324 7 57 37 27 135 195 219 135 228 96 111 103 82 56 37 23 23
96 165 173 189 192 217 257 235 249 281 231 235 218 212 224 264 288 248 268 145 143 115 156 3 19 32 317 313 62 81 47 59 31 290 239 240 199 160 79 81 50 39 333 325 288
103 244 42 171 321 347 208 223 236 233 265 290 280 305 280 249 249 262 260 182 178 163 147 118 183 200 219 192 147 141 212 140 131 149 318 249 257 235 248 231 260 258 259 282 273
125 45 76 329 240 293 338 332 167 299 18 28 278 36 358 264 257 250 257 281 189 181 157 148 219 221 240 229 175 183 180 196 194 213 200 249 241 261 252 209 231 246 257 259 256
145 155 158 206 237 182 55 334 4 76 8 36 36 10 33 92 38 358 349 4 302 126 155 181 244 205 251 250 233 193 220 224 217 222 229 252 260 256 254 255 258 264 253 244 239
186 203 67 306 64 197 199 207 222 103 226 302 148 345 5 123 354 268 274 278 279 296 116 310 195 194 237 231 258 259 232 221 227 230 210 221 237 254 247 239 245 254 246 220 102